Lexington Weather

Lexington, Massachusetts, USA

54°F
12/10/2019 4:50pm 
  • Lexington Conditions: Light rain, Overcast
  • Temperature: 54.0°F / 12.2°CColder 0.3°F than last hour.
  • Dew Point: 52.5°FDecreased 0.2°Fsince last hour.
  • Relative Humidity: 95%Increased 1.0% since last hour.
  • Wind: Wind from SW SW 4 mph, 10-min avg: 3 mph, gust: 10 mph
  • Barometer: 29.71 inRising 0.03  inHg/hr Rising Slowly
  • Visibility: 10 miles
  • Rain Today: 0.05 in
  •   

Regional Weather Roundup
for Boston / Norton, MA

        
000
ASUS41 KBOX 092201
RWRBOX

REGIONAL WEATHER ROUNDUP
NATIONAL WEATHER SERVICE BOSTON/NORTON MA
500 PM EST MON DEC 09 2019

NOTE:  "FAIR" INDICATES FEW OR NO CLOUDS BELOW 12,000 FEET WITH NO 
SIGNIFICANT WEATHER AND/OR OBSTRUCTIONS TO VISIBILITY.

MAZALL-092300-
EASTERN MASSACHUSETTS
  
CITY           SKY/WX    TMP DP  RH WIND       PRES   REMARKS
BOSTON         LGT RAIN  56  51  84 S15       29.89S                  
BEVERLY        CLOUDY    52  50  93 S10       29.88F                  
LAWRENCE       CLOUDY    52  50  93 S8        29.88F                  
BEDFORD        LGT RAIN  52  49  89 S12       29.87F FOG              
BLUE HILL        N/A     52  52 100 S25G41    29.87F                  
NORWOOD        CLOUDY    58  52  80 S15       29.89F                  
MARSHFIELD     NOT AVBL                                               
PLYMOUTH       NOT AVBL                                               
TAUNTON        LGT RAIN  57  54  89 S14G21    29.90F                  
NEW BEDFORD    HVY RAIN  54  54 100 S16G25    29.92F FOG              
$$

MAZALL-092300-
CAPE COD AND THE ISLANDS
  
CITY           SKY/WX    TMP DP  RH WIND       PRES   REMARKS
FALMOUTH       NOT AVBL                                               
HYANNIS        NOT AVBL                                               
CHATHAM        RAIN      52  51  97 S15G24    29.98F FOG              
NANTUCKET      CLOUDY    51  49  92 S21G29    29.99F                  
MARTHAS VNYRD  LGT RAIN  54  52  93 S17G28    29.96F VSB 1            
$$
 
MAZALL-092300-
CENTRAL AND WESTERN MASSACHUSETTS
  
CITY           SKY/WX    TMP DP  RH WIND       PRES   REMARKS
WORCESTER      LGT RAIN  48  48 100 SW15G22   29.85F VSB 1            
FITCHBURG      NOT AVBL                                               
ORANGE         LGT RAIN  50  48  93 S9        29.84F FOG              
SPRINGFIELD    LGT RAIN  39  39  99 S5        29.83F VSB 1/4          
WESTFIELD      LGT RAIN  37  36  96 S3        29.84F VSB 1/4          
NORTH ADAMS    LGT RAIN  51  43  74 S14G37    29.78F                  
PITTSFIELD     LGT RAIN  47  43  86 S15G22    29.78F                  
$$
 
RIZALL-092300-
RHODE ISLAND
  
CITY           SKY/WX    TMP DP  RH WIND       PRES   REMARKS
PROVIDENCE     HVY RAIN  56  54  93 S16       29.91F FOG              
NEWPORT        LGT RAIN  56  54  93 S17G29    29.90F FOG              
BLOCK ISLAND   RAIN      54  53  97 SW14      29.92F FOG              
SMITHFIELD     LGT RAIN  53  53 100 VRB7      29.89F                  
WESTERLY       RAIN      57  53  86 SW12G21   29.92F FOG              
$$
 
CTZALL-092300-
CONNECTICUT
  
CITY           SKY/WX    TMP DP  RH WIND       PRES   REMARKS
BRADLEY INTL   LGT RAIN  47  46  97 S9        29.85F VSB 1/4          
HARTFORD       LGT RAIN  51  50  96 S8        29.86F                  
BRIDGEPORT     LGT RAIN  51  50  96 S8        29.87F FOG              
DANBURY        LGT RAIN  51  48  89 S9        29.86F                  
GROTON         NOT AVBL                                               
NEW HAVEN      LGT RAIN  52  50  93 S5        29.88F VSB 1            
CHESTER        LGT RAIN  54  54 100 S9        29.89F VSB 3/4          
MERIDEN        RAIN      51  50  96 S7        29.86F FOG              
WILLIMANTIC    CLOUDY    53  52  96 S6        29.89F                  
OXFORD         LGT RAIN  50  50 100 S10       29.85F FOG              
$$

MEZ002-015-021-024-NHZ003-005-008-011-012-014-VTZ005-008-092300-
NORTHERN NEW ENGLAND
  
CITY           SKY/WX    TMP DP  RH WIND       PRES   REMARKS
PORTLAND ME    LGT RAIN  50  47  89 S12G22    29.87F FOG              
BANGOR ME      LGT RAIN  47  47 100 S17G29    29.91F FOG              
CONCORD NH     LGT RAIN  35  35 100 NW5       29.85F VSB 3/4 WCI  31  
MANCHESTER NH  FOG       40  39  97 CALM      29.84F VSB 1/4          
NASHUA NH      LGT RAIN  40  40 100 CALM      29.85F VSB 1/4          
PORTSMOUTH NH  NOT AVBL                                               
JAFFREY NH     LGT RAIN  49  47  93 S12G18    29.82F                  
KEENE NH       RAIN      36  35  96 CALM      29.82F VSB 1            
BURLINGTON VT  LGT RAIN  41  39  93 S6        29.68F                  
MT. WASHINGTON LGT RAIN  32  32 100 SW45G55     N/A  VSB 1/16WCI  15  
$$

NYZ052-076-092300-
EASTERN NEW YORK
  
CITY           SKY/WX    TMP DP  RH WIND       PRES   REMARKS
ALBANY         LGT RAIN  45  41  86 S16G25    29.75F                  
NEW YORK CITY  RAIN      53  49  86 S10       29.87F FOG              
$$
 
ANZALL-092300-
MARINE OBSERVATIONS
  
STATION/POSITION TIME  TEMP    WIND        PRES    VSBY  WAVE
                       AIR SEA DIR/SP/G                  HT/PER
                 (UTC) (F)     (DEG/KT/KT) (MB)    (MI)  (FT/S)
BOSTON BUOY      2050   51 48  150/ 21/ 25 1012.7          4/ 5
BUZZARDS BAY     2100   53     180/ 23/ 24 1014.5F
NANTUCKET SOUND  2140      42              1014.7F
MASS BAY-STELLWA 2104   50 46  180/ 23/ 27 1011.4F  1 7/8  6/ 5
ISLE OF SHOALS   2100   49     170/ 27/ 30 1011.8F
S OF BLOCK IS    2130      52                N/A          11/ 8
$$

......................KEY.........................
  SKY/WX - SKY CONDITION/PRESENT WEATHER
  TMP    - TEMPERATURE IN FAHRENHEIT
  DWPT   - DEWPOINT IN FAHRENHEIT
  RH     - RELATIVE HUMIDITY IN PERCENT
  WIND   - DIRECTION AND SPEED IN MPH
  PRES   - MEAN SEA LEVEL PRESSURE IN INCHES OF HG
  WCI    - WIND CHILL INDEX
  VSB    - VISIBILITY IN MILES
  HX     - HEAT INDEX
  TC     - TEMPERATURE IN CELSIUS
  VRB    - VARIABLE WIND DIRECTION
  N/A    - NOT AVAILABLE
  
      

Other recent Regional Weather Roundups

Tue Dec 10, 4:10pm

Tue Dec 10, 4:01pm

Tue Dec 10, 3:10pm

Tue Dec 10, 3:01pm

Tue Dec 10, 2:10pm

Tue Dec 10, 2:01pm

Tue Dec 10, 1:10pm

Tue Dec 10, 1:00pm

Tue Dec 10, 12:10pm

Tue Dec 10, 12:00pm

Tue Dec 10, 11:10am

Tue Dec 10, 11:00am

Tue Dec 10, 10:10am

Tue Dec 10, 10:00am

Tue Dec 10, 9:10am

Tue Dec 10, 9:01am

Tue Dec 10, 8:10am

Tue Dec 10, 8:00am

Tue Dec 10, 7:10am

Tue Dec 10, 7:00am

Tue Dec 10, 6:10am

Tue Dec 10, 6:00am

Tue Dec 10, 5:10am

Tue Dec 10, 5:00am

Tue Dec 10, 4:10am

Tue Dec 10, 4:00am

Tue Dec 10, 3:10am

Tue Dec 10, 3:00am

Tue Dec 10, 2:10am

Tue Dec 10, 2:01am

Tue Dec 10, 1:10am

Tue Dec 10, 1:00am

Tue Dec 10, 12:10am

Tue Dec 10, 12:01am

Mon Dec 9, 11:10pm

Mon Dec 9, 11:01pm

Mon Dec 9, 10:10pm

Mon Dec 9, 10:00pm

Mon Dec 9, 9:10pm

Mon Dec 9, 9:01pm

Mon Dec 9, 8:10pm

Mon Dec 9, 8:01pm

Mon Dec 9, 7:10pm

Mon Dec 9, 7:00pm

Mon Dec 9, 6:10pm

Mon Dec 9, 6:00pm

Mon Dec 9, 5:10pm

Mon Dec 9, 4:10pm

Mon Dec 9, 4:01pm

Mon Dec 9, 3:10pm

Mon Dec 9, 3:01pm

Mon Dec 9, 2:10pm

Mon Dec 9, 2:00pm

Mon Dec 9, 1:10pm

Mon Dec 9, 1:00pm

Mon Dec 9, 12:10pm

Mon Dec 9, 12:00pm

Mon Dec 9, 11:10am

Mon Dec 9, 11:00am

Mon Dec 9, 10:10am

Mon Dec 9, 10:00am

Mon Dec 9, 9:10am

Mon Dec 9, 9:00am

Mon Dec 9, 8:10am

Mon Dec 9, 8:00am

Mon Dec 9, 7:10am

Mon Dec 9, 7:00am

Mon Dec 9, 6:10am

Mon Dec 9, 6:00am

Mon Dec 9, 5:10am

Mon Dec 9, 5:00am

Mon Dec 9, 4:10am

Mon Dec 9, 4:00am

Mon Dec 9, 3:10am

Mon Dec 9, 3:00am

Mon Dec 9, 2:10am

Mon Dec 9, 2:00am

Mon Dec 9, 1:10am

Mon Dec 9, 1:00am

Mon Dec 9, 12:10am

Mon Dec 9, 12:00am

Sun Dec 8, 11:10pm

Sun Dec 8, 11:00pm

Sun Dec 8, 10:10pm

Sun Dec 8, 10:01pm

Sun Dec 8, 9:10pm

Sun Dec 8, 9:01pm

Sun Dec 8, 8:10pm

Sun Dec 8, 8:00pm

Sun Dec 8, 7:10pm

Sun Dec 8, 7:00pm

Sun Dec 8, 6:10pm

Sun Dec 8, 6:01pm

Sun Dec 8, 5:10pm

Sun Dec 8, 5:00pm

Sun Dec 8, 4:10pm

Sun Dec 8, 4:01pm

Sun Dec 8, 3:10pm

Sun Dec 8, 3:01pm

Sun Dec 8, 2:10pm

Sun Dec 8, 2:01pm

Sun Dec 8, 1:10pm

Sun Dec 8, 1:00pm

Sun Dec 8, 12:10pm

Sun Dec 8, 12:01pm

Sun Dec 8, 11:10am

Sun Dec 8, 11:00am

Sun Dec 8, 10:10am

Sun Dec 8, 10:01am

Sun Dec 8, 9:10am

Sun Dec 8, 9:00am

Sun Dec 8, 8:10am

Sun Dec 8, 8:00am

Sun Dec 8, 7:10am

Sun Dec 8, 7:00am

Sun Dec 8, 6:10am

Sun Dec 8, 6:00am

Sun Dec 8, 5:10am

Sun Dec 8, 5:00am

Sun Dec 8, 4:10am

Sun Dec 8, 4:00am

Sun Dec 8, 3:10am

Sun Dec 8, 3:00am

Sun Dec 8, 2:10am

Sun Dec 8, 2:00am

Sun Dec 8, 1:10am

Sun Dec 8, 1:00am

Sun Dec 8, 12:10am

Sun Dec 8, 12:01am

Sat Dec 7, 11:10pm

Sat Dec 7, 11:00pm

Sat Dec 7, 10:10pm

Sat Dec 7, 10:00pm

Sat Dec 7, 9:10pm

Sat Dec 7, 9:00pm

Sat Dec 7, 8:10pm

Sat Dec 7, 8:00pm

Sat Dec 7, 7:10pm

Sat Dec 7, 7:00pm

Sat Dec 7, 6:10pm

Sat Dec 7, 6:00pm

Sat Dec 7, 5:10pm

Sat Dec 7, 5:00pm

Meta data:

ID: 9769f8b8-3af3-4a76-8907-b1b326dc7b79
Link: https://api.weather.gov/products/9769f8b8-3af3-4a76-8907-b1b326dc7b79